Regional Weather Roundup
Issued by NWS

Home | Current Version | Previous Version | Graphics & Text | Print | Product List | Glossary On
Versions: 1 2 3 4 5 6 7 8 9 10 11 12 13 14 15 16 17 18 19 20 21 22 23 24 25 26 27 28 29 30 31 32 33 34 35 36 37 38 39 40 41 42 43 44 45 46 47 48 49 50
000
ASUS45 KABQ 241801
RWRNM
WEATHER ROUNDUP FOR NEW MEXICO
NATIONAL WEATHER SERVICE ALBUQUERQUE NM
1200 PM MDT THU APR 24 2014

NOTE: "FAIR" MEANS FEW OR NO CLOUDS BELOW 12,000 FEET AGL WITH NO
       SIGNIFICANT WEATHER OR OBSTRUCTIONS TO VISION.

      THIS PRODUCT IS RELEASED AS TWO VERSIONS.  ONE VERSION NEAR
      THE TOP OF THE HOUR CONTAINING PRELIMINARY DATA FROM ALBUQUERQUE
      AND OTHER STATIONS.  A FINAL VERSION WITH ADDITIONAL DATA IS
      ISSUED ABOUT 10 MINUTES AFTER THE HOUR.

NMZ501-503-504-510>518-241900-
NORTHWEST PLATEAU/NORTHCENTRAL MOUNTAINS

CITY           SKY/WX    TMP DP  RH WIND       PRES   REMARKS
FARMINGTON     PTSUNNY   55   6  14 VRB7      30.14F
6HR MIN TEMP:  33; 6HR MAX TEMP:  55;

LOS ALAMOS     SUNNY     53  10  17 SE8       30.17S
SANTA FE       MOSUNNY   58   6  12 W9G16     30.14S
6HR MIN TEMP:  33; 6HR MAX TEMP:  58;

TAOS           SUNNY     52  12  20 NW3       30.17F
ANGEL FIRE     FAIR      51   8  17 W15G23    30.15S

$$
NMZ402-403-502-505>509-241900-
WESTCENTRAL MOUNTAINS/SOUTHWEST MOUNTAINS

CITY           SKY/WX    TMP DP  RH WIND       PRES   REMARKS
GALLUP         PTSUNNY   56   9  15 CALM      30.18F
6HR MIN TEMP:  21; 6HR MAX TEMP:  56;

SILVER CITY    SUNNY     68   9  10 S6        30.15F

$$
NMZ407-409-411-412-241900-
SOUTHERN DESERTS

CITY           SKY/WX    TMP DP  RH WIND       PRES   REMARKS
LORDSBURG      FAIR      70  14  11 N7        30.10S
DEMING         SUNNY     73  11   9 VRB7      30.09F
6HR MIN TEMP:  43; 6HR MAX TEMP:  73;

LAS CRUCES     SUNNY     72  12  10 SE5       30.11F
T OR C         SUNNY     69  11  10 NE14      30.11F
6HR MIN TEMP:  45; 6HR MAX TEMP:  69;


$$
NMZ519>523-241900-
CENTRAL VALLEYS/CENTRAL HIGHLANDS

CITY           SKY/WX    TMP DP  RH WIND       PRES   REMARKS
ALBUQUERQUE    MOSUNNY   61   9  12 CALM      30.16F
6HR MIN TEMP:  46; 6HR MAX TEMP:  61;

DOUBLE EAGLE   PTSUNNY   59  12  15 W10       30.17F
CLINES CORNERS MOSUNNY   55  -1  10 W14       30.14S
6HR MIN TEMP:  31; 6HR MAX TEMP:  56;

BELEN          FAIR      62  13  15 SW7       30.16F
6HR MIN TEMP:  36; 6HR MAX TEMP:  62;

SOCORRO        NOT AVBL

$$
NMZ524>526-539-540-241900-
SOUTHCENTRAL MOUNTAINS

CITY           SKY/WX    TMP DP  RH WIND       PRES   REMARKS
RUIDOSO        NOT AVBL

$$
NMZ527>531-241900-
NORTHEAST HIGHLANDS/NORTHEAST PLAINS

CITY           SKY/WX    TMP DP  RH WIND       PRES   REMARKS
LAS VEGAS      SUNNY     56  18  22 S13G24    30.11F
6HR MIN TEMP:  31; 6HR MAX TEMP:  56;

RATON          SUNNY     56  22  26 S13G20    30.07F
6HR MIN TEMP:  35; 6HR MAX TEMP:  56;

CLAYTON        SUNNY     59  17  19 MISG      30.06F
6HR MIN TEMP:  39; 6HR MAX TEMP:  59;


$$
NMZ532>537-241900-
EASTCENTRAL PLAINS

CITY           SKY/WX    TMP DP  RH WIND       PRES   REMARKS
TUCUMCARI      SUNNY     64  21  19 VRB5      30.06F
6HR MIN TEMP:  50; 6HR MAX TEMP:  65;

CANNON AFB     NOT AVBL
CLOVIS AIRPORT SUNNY     63  27  25 NW10      30.11F

$$
NMZ028-029-538-241900-
SOUTHEAST PLAINS

CITY           SKY/WX    TMP DP  RH WIND       PRES   REMARKS
ROSWELL        SUNNY     67  29  24 VRB7G16   30.09S
6HR MIN TEMP:  54; 6HR MAX TEMP:  68;

CARLSBAD       MOSUNNY   74  22  14 N15       30.07F
6HR MIN TEMP:  55; 6HR MAX TEMP:  74;

HOBBS          SUNNY     68  30  24 N17G24    30.08F


$$



USA.gov is the U.S. government's official web portal to all federal, state and local government web resources and services.